TimeEST,TemperatureF,Dew PointF,Humidity,Sea Level PressureIn,VisibilityMPH,Wind Direction,Wind SpeedMPH,Gust SpeedMPH,PrecipitationIn,Events,Conditions,WindDirDegrees,DateUTC
12:06 AM,42.8,42.8,100,29.94,1.2,Calm,Calm,-,N/A,,Overcast,0,2012-12-10 05:06:00
12:53 AM,42.1,42.1,100,29.96,1.5,NW,3.5,-,N/A,,Overcast,320,2012-12-10 05:53:00
1:29 AM,42.8,42.8,100,29.89,0.8,Calm,Calm,-,N/A,,Mist,0,2012-12-10 06:29:00
1:45 AM,42.8,42.8,100,29.88,1.0,Calm,Calm,-,N/A,,Mist,0,2012-12-10 06:45:00
1:53 AM,43.0,43.0,100,29.92,1.0,Calm,Calm,-,N/A,,Mist,0,2012-12-10 06:53:00
2:03 AM,42.8,42.8,100,29.88,0.8,NW,4.6,-,N/A,,Mist,310,2012-12-10 07:03:00
2:53 AM,43.0,43.0,100,29.90,0.5,Calm,Calm,-,N/A,Fog,Fog,0,2012-12-10 07:53:00
3:53 AM,43.0,43.0,100,29.86,0.5,Calm,Calm,-,N/A,Fog,Fog,0,2012-12-10 08:53:00
4:06 AM,42.8,42.8,100,29.81,0.2,Calm,Calm,-,N/A,Fog,Fog,0,2012-12-10 09:06:00
4:49 AM,42.8,42.8,100,29.79,0.5,Calm,Calm,-,N/A,Fog,Fog,0,2012-12-10 09:49:00
4:53 AM,43.0,43.0,100,29.83,0.5,Calm,Calm,-,N/A,Fog,Fog,0,2012-12-10 09:53:00
5:10 AM,42.8,42.8,100,29.79,0.2,NW,4.6,-,N/A,Fog,Fog,310,2012-12-10 10:10:00
5:53 AM,44.1,44.1,100,29.81,0.2,Calm,Calm,-,N/A,Fog,Fog,0,2012-12-10 10:53:00
6:53 AM,43.0,43.0,100,29.80,0.2,NW,3.5,-,N/A,Fog,Fog,320,2012-12-10 11:53:00
7:53 AM,43.0,43.0,100,29.80,0.2,NW,3.5,-,N/A,Fog,Fog,320,2012-12-10 12:53:00
8:10 AM,42.8,42.8,100,29.75,0.2,NW,5.8,-,N/A,Fog,Fog,310,2012-12-10 13:10:00
8:27 AM,44.6,44.6,100,29.76,0.2,NNW,6.9,-,N/A,Fog,Fog,330,2012-12-10 13:27:00
8:53 AM,44.1,44.1,100,29.78,0.2,NNW,3.5,-,N/A,Fog,Fog,330,2012-12-10 13:53:00
9:01 AM,44.6,44.6,100,29.74,0.2,Calm,Calm,-,N/A,Fog,Fog,0,2012-12-10 14:01:00
9:08 AM,44.6,44.6,100,29.74,0.2,Calm,Calm,-,N/A,Fog,Fog,0,2012-12-10 14:08:00
9:30 AM,46.4,46.4,100,29.74,0.2,NNW,3.5,-,N/A,Fog,Fog,330,2012-12-10 14:30:00
9:53 AM,48.9,48.9,100,29.77,0.2,Calm,Calm,-,N/A,Fog,Fog,0,2012-12-10 14:53:00
10:41 AM,48.2,48.2,100,29.72,0.2,NW,4.6,-,0.03,Fog-Rain,Light Rain,320,2012-12-10 15:41:00
10:53 AM,48.0,48.0,100,29.76,0.5,Calm,Calm,-,0.04,Fog,Fog,0,2012-12-10 15:53:00
11:53 AM,48.9,48.9,100,29.72,0.5,Calm,Calm,-,N/A,Fog,Fog,0,2012-12-10 16:53:00
12:13 PM,50.0,50.0,100,29.66,1.5,Calm,Calm,-,N/A,,Overcast,0,2012-12-10 17:13:00
12:53 PM,51.1,51.1,100,29.67,2.0,Calm,Calm,-,0.00,,Overcast,0,2012-12-10 17:53:00
1:26 PM,50.0,50.0,100,29.62,0.2,NW,6.9,-,N/A,Fog,Fog,310,2012-12-10 18:26:00
1:53 PM,48.9,48.9,100,29.65,0.2,Calm,Calm,-,0.00,Fog-Rain,Light Rain,0,2012-12-10 18:53:00
2:10 PM,48.2,48.2,100,29.61,0.2,WNW,4.6,-,0.01,Fog-Rain,Light Rain,290,2012-12-10 19:10:00
2:18 PM,48.2,48.2,100,29.61,0.2,Calm,Calm,-,0.01,Fog-Rain,Light Rain,0,2012-12-10 19:18:00
2:30 PM,50.0,50.0,100,29.60,0.5,South,3.5,-,0.01,Fog-Rain,Light Rain,180,2012-12-10 19:30:00
2:41 PM,50.0,50.0,100,29.60,1.5,South,3.5,-,0.01,Rain,Light Rain,190,2012-12-10 19:41:00
2:53 PM,51.1,51.1,100,29.64,2.5,SSW,4.6,-,0.01,Rain,Light Rain,200,2012-12-10 19:53:00
3:10 PM,51.8,51.8,100,29.59,2.5,Calm,Calm,-,0.00,,Overcast,0,2012-12-10 20:10:00
3:25 PM,50.0,50.0,100,29.59,0.8,NW,3.5,-,0.00,,Overcast,320,2012-12-10 20:25:00
3:36 PM,50.0,50.0,100,29.59,0.2,Calm,Calm,-,0.00,Fog,Fog,0,2012-12-10 20:36:00
3:53 PM,50.0,50.0,100,29.62,0.2,NW,3.5,-,0.00,Fog,Fog,310,2012-12-10 20:53:00
4:42 PM,50.0,50.0,100,29.58,0.5,Calm,Calm,-,0.01,Fog-Rain,Light Rain,0,2012-12-10 21:42:00
4:53 PM,50.0,50.0,100,29.62,1.2,Calm,Calm,-,0.01,Rain,Light Rain,0,2012-12-10 21:53:00
5:45 PM,50.0,50.0,100,29.58,2.5,Calm,Calm,-,0.01,,Overcast,0,2012-12-10 22:45:00
5:53 PM,50.0,50.0,100,29.62,2.5,Calm,Calm,-,0.01,,Overcast,0,2012-12-10 22:53:00
6:29 PM,51.8,51.8,100,29.57,1.8,ESE,5.8,-,N/A,,Overcast,110,2012-12-10 23:29:00
6:36 PM,51.8,51.8,100,29.57,3.0,ESE,3.5,-,N/A,,Mostly Cloudy,110,2012-12-10 23:36:00
6:53 PM,52.0,52.0,100,29.61,3.0,SSE,4.6,-,N/A,,Mostly Cloudy,160,2012-12-10 23:53:00
7:29 PM,50.0,50.0,100,29.57,1.8,West,3.5,-,N/A,,Mostly Cloudy,280,2012-12-11 00:29:00
7:53 PM,51.1,51.1,100,29.60,1.5,Calm,Calm,-,N/A,,Overcast,0,2012-12-11 00:53:00
8:15 PM,51.8,51.8,100,29.56,3.0,South,4.6,-,N/A,,Mostly Cloudy,180,2012-12-11 01:15:00
8:33 PM,51.8,51.8,100,29.58,1.2,NW,17.3,21.9,N/A,,Overcast,310,2012-12-11 01:33:00
8:39 PM,48.2,48.2,100,29.59,0.2,NW,9.2,21.9,N/A,Fog,Fog,310,2012-12-11 01:39:00
8:46 PM,50.0,50.0,100,29.59,0.5,NNW,6.9,-,N/A,Fog,Fog,330,2012-12-11 01:46:00
8:53 PM,50.0,50.0,100,29.63,1.0,NNW,4.6,-,N/A,,Overcast,330,2012-12-11 01:53:00
9:00 PM,51.8,51.8,100,29.60,3.0,WNW,3.5,-,N/A,,Overcast,300,2012-12-11 02:00:00
9:25 PM,51.8,51.8,100,29.59,4.0,NW,8.1,-,N/A,,Overcast,320,2012-12-11 02:25:00
9:43 PM,51.8,51.8,100,29.60,8.0,WNW,11.5,16.1,N/A,,Overcast,300,2012-12-11 02:43:00
9:53 PM,52.0,48.9,89,29.64,10.0,NW,16.1,24.2,N/A,,Overcast,310,2012-12-11 02:53:00
10:01 PM,51.8,46.4,82,29.62,10.0,NW,19.6,25.3,N/A,,Overcast,320,2012-12-11 03:01:00
10:53 PM,46.9,42.1,83,29.70,10.0,NW,18.4,25.3,0.01,,Overcast,320,2012-12-11 03:53:00
11:53 PM,45.0,37.9,76,29.76,10.0,NNW,10.4,-,0.00,,Overcast,340,2012-12-11 04:53:00